Regional Weather Roundup
Issued by NWS

Home | Current Version | Previous Version | Text Only | Print | Product List | Glossary On
Versions: 1 2 3 4 5 6 7 8 9 10 11 12 13 14 15 16 17 18 19 20 21 22 23 24 25 26 27 28 29 30 31 32 33 34 35 36 37 38 39 40 41 42 43 44 45 46 47 48 49 50
000
ASUS46 KSTO 251015
RWRCA

NORTHERN AND CENTRAL CA REGIONAL WEATHER ROUNDUP
NATIONAL WEATHER SERVICE SACRAMENTO CA
300 AM PDT MON JUL 25 2016

NOTE: FAIR INDICATES FEW OR NO CLOUDS BELOW 12,000 FEET WITH NO
SIGNIFICANT WEATHER AND/OR OBSTRUCTIONS TO VISIBILITY.

CAZ001-003-251100-
NORTHWEST AREA

CITY           SKY/WX    TMP DP  RH WIND       PRES   REMARKS
CRESCENT CITY  CLOUDY    56  54  93 SW3       30.03S
UKIAH          CLEAR     61  50  67 CALM      29.89R
$$

CAZ006-505>513-251100-
BAY AREA

CITY           SKY/WX    TMP DP  RH WIND       PRES   REMARKS
SANTA ROSA     CLEAR     52  49  89 CALM      29.89S
SAN RAFAEL     N/A       54  MM  MM MISG
NAPA           CLOUDY    57  54  89 S7        29.91S
CONCORD        CLEAR     65  50  58 SW9       29.87F
OAKLAND CITY   N/A       56  MM  MM MISG
OAKLAND        PTCLDY    56  53  90 N5        29.93S
SAN FRAN CITY  N/A       54  MM  92 MISG
SAN FRAN ARPT  PTCLDY    55  51  86 W7        29.93S
LIVERMORE      CLEAR     59  51  75 NW9       29.90R
HAYWARD        MOCLDY    58  52  80 W8        29.92F
REDWOOD CITY   N/A       56  MM  84 MISG
MOFFETT ARPT   CLEAR     59  54  83 N7        29.93S
SAN JOSE ARPT  CLEAR     60  54  80 NW5       29.92S
$$
CAZ034-037-514>518-251100-
CENTRAL COAST

CITY           SKY/WX    TMP DP  RH WIND       PRES   REMARKS
WATSONVILLE    CLOUDY    53  52  96 CALM      29.96S FOG
SALINAS        CLOUDY    55  51  86 SW5       29.95F FOG
MONTEREY       CLOUDY    54  52  93 SW6       29.96S FOG
SAN LUIS OBISP FOG       54  52  93 CALM      29.94R VSB 1
SANTA MARIA    FOG       52  52 100 CALM      29.94S VSB 1/4
$$
CAZ015-016-251100-
NORTHERN SACRAMENTO VALLEY

CITY           SKY/WX    TMP DP  RH WIND       PRES   REMARKS
REDDING        CLEAR     77  52  41 N5        29.84R
RED BLUFF      CLEAR     77  56  48 NW7       29.84R
OROVILLE       CLEAR     75  51  43 S8        29.84S
$$
CAZ016>018-251100-
SOUTHERN SACRAMENTO VALLEY

CITY           SKY/WX    TMP DP  RH WIND       PRES   REMARKS
AUBURN         CLEAR     75  43  31 E9        29.93S
BEALE AFB      CLEAR     73  48  40 SE5       29.82R
LINCOLN        FAIR      73  43  33 SE6       29.83S
MARYSVILLE     CLEAR     73  32  22 SE8       29.83R
SAC INTL ARPT  CLEAR     67  50  54 SE13      29.82S
MATHER AIRPORT NOT AVBL
DOWNTOWN SAC   N/A       67  MM  MM MISG
SAC EXEC ARPT  CLEAR     63  51  65 S10       29.84S
VACAVILLE      CLEAR     67  49  52 SW10      29.82S
TRAVIS AFB     CLEAR     61  52  71 SW23      29.81S
$$
CAZ019>021-251100-
SAN JOAQUIN VALLEY

CITY           SKY/WX    TMP DP  RH WIND       PRES   REMARKS
STOCKTON       CLEAR     70  50  49 W7        29.84S
MODESTO        CLEAR     78  52  40 SW3       29.83R
MERCED         CLEAR     72  54  53 NW6       29.83S
LEMOORE        CLEAR     71  46  40 N6        29.84S
FRESNO         CLEAR     76  49  38 NW6       29.84S
HANFORD        CLEAR     67  56  67 CALM      29.84S
PORTERVILLE    CLEAR     71  44  37 SE6       29.86R
BAKERSFIELD    CLEAR     83  30  14 N8        29.86S
$$
CAZ011-012-071-251100-
NORTHERN MOUNTAINS

CITY           SKY/WX    TMP DP  RH WIND       PRES   REMARKS
YREKA          CLEAR     66  46  48 NE8       30.03R
MOUNT SHASTA   CLEAR     57  46  66 CALM      30.07R
ALTURAS        CLEAR     54  39  57 MISG      30.12R
$$
CAZ011-012-071-251100-
SIERRA NEVADA MTNS

CITY           SKY/WX    TMP DP  RH WIND       PRES   REMARKS
TRUCKEE        CLEAR     41  32  70 CALM      30.26R
TAHOE VLY ARPT CLEAR     44  35  70 S3        30.26S
MAMMOTH LAKES    N/A     51  25  36 N6        30.30S
$$



USA.gov is the U.S. government's official web portal to all federal, state and local government web resources and services.